Regional Weather Roundup
Issued by NWS

Home | Current Version | Previous Version | Graphics & Text | Print | Product List | Glossary On
Versions: 1 2 3 4 5 6 7 8 9 10 11 12 13 14 15 16 17 18 19 20 21 22 23 24 25 26 27 28 29 30 31 32 33 34 35 36 37 38 39 40 41 42 43 44 45 46 47 48 49 50
000
ASUS43 KMPX 202301
RWRMN
WEATHER ROUNDUP FOR MINNESOTA
NATIONAL WEATHER SERVICE TWIN CITIES/CHANHASSEN MN
600 PM CDT MON APR 20 2015


NOTE: "FAIR" INDICATES FEW OR NO CLOUDS BELOW 12,000 FEET WITH NO
SIGNIFICANT WEATHER AND/OR OBSTRUCTIONS TO VISIBILITY. N/A MEANS
CURRENT SKY AND/OR WEATHER CONDITIONS ARE NOT AVAILABLE.

MNZ060>063-068>070-210000-
   Twin Cities Metro

CITY           SKY/WX    TMP DP  RH WIND       PRES   REMARKS
TWIN CITIES    CLOUDY    42  26  53 W23G30    29.52F
ST PAUL        CLOUDY    42  25  50 W17       29.53S
CRYSTAL        CLOUDY    43  27  53 W20G35    29.50F
BLAINE         CLOUDY    43  27  52 W21G29    29.50
LAKEVILLE      CLOUDY    39  28  65 W17G26    29.53S
EDEN PRAIRIE   CLOUDY    42  27  55 W16G25    29.52S
SOUTH ST PAUL  CLOUDY    42  25  50 W15       29.52S
LAKE ELMO      CLOUDY    41  28  60 W16G23    29.52S
$$
MNZ001>005-007-008-013>017-022>024-027-028-210000-
   Northwest Minnesota

CITY           SKY/WX    TMP DP  RH WIND       PRES   REMARKS
BEMIDJI        LGT SNOW  33  30  89 NW20G26   29.47R WCI  21
HALLOCK        CLOUDY    36  30  80 NW24G30   29.58S
ROSEAU         CLOUDY    36  28  75 NW24G31   29.49R
WARROAD        CLOUDY    36  28  75 NW25G36   29.47S
THIEF RVR FALL CLOUDY    34  28  80 NW23G33   29.55R WCI  22
CROOKSTON      CLOUDY    34  34 100 N29G35    29.59S WCI  20
FOSSTON        LGT SNOW  32  28  86 NW18G25   29.54R WCI  20
DETROIT LAKES  LGT RAIN  34  32  93 NW28G35   29.57R WCI  20
MOORHEAD       LGT RAIN  36  34  93 NW18      29.62S
PARK RAPIDS    LGT RAIN  43  28  55 NW23G35   29.48S
MAHNOMEN       LGT SNOW  32  31  93 NW25G38   29.55R WCI  19
$$
MNZ006-009>011-018-025>026-210000-
   North Central Minnesota

CITY           SKY/WX    TMP DP  RH WIND       PRES   REMARKS
BAUDETTE       LGT SNOW  35  30  82 NW21G37   29.41R WCI  24
FLAG ISLAND    FLURRIES  34  30  86 NW22G28   29.42S WCI  22
INTL FALLS     FLURRIES  34  32  92 W10G18    29.35S WCI  26
WASKISH        FLURRIES  36  30  80 W15G24    29.43R
BIG FORK       LGT SNOW  34  30  86 W8        29.40S WCI  27
LONGVILLE      FLURRIES  34  28  80 W13G20    29.45S WCI  25
GRAND RAPIDS   CLOUDY    32  27  80 W10G24    29.42S WCI  24
CRANE LAKE     CLOUDY    30  28  93 W5        29.35S WCI  25
ORR            LGT SNOW  32  28  86 W9        29.33S WCI  24
COOK           LGT SNOW  32  28  86 W9        29.35F WCI  24
WALKER         CLOUDY    35  28  75 W13       29.46S WCI  26
$$
MNZ012-019>021-037-210000-
   Northeast Minnesota

CITY           SKY/WX    TMP DP  RH WIND       PRES   REMARKS
DULUTH         FLURRIES  34  26  72 W21G29    29.37R WCI  22
ELY            CLOUDY    30  27  86 W8        29.32S WCI  23
HIBBING        FLURRIES  33  25  72 W13G21    29.38S WCI  24
EVELETH        MIX PCPN  32  28  86 W16G22    29.37F WCI  21
DULUTH HARBOR  CLOUDY    39  30  70 W25       29.40S
TWO HARBORS    CLOUDY    37  28  70 W16G24    29.33S
SILVER BAY     CLOUDY    36  27  69 W10G22    29.31S
GRAND MARAIS     N/A     38  29  70 W8        29.27R
G MARAIS ARPRT CLOUDY    30  25  80 W14G23    29.23R WCI  20
$$
MNZ029>031-032-039>041-046>048-054>057-064-210000-
   West Central Minnesota

CITY           SKY/WX    TMP DP  RH WIND       PRES   REMARKS
FERGUS FALLS   LGT RAIN  36  34  93 NW25G32   29.61R
WHEATON        PTSUNNY   39  30  70 NW23G35   29.64S
MORRIS         CLOUDY    39  36  87 NW26      29.60R
ALEXANDRIA     FLURRIES  36  32  85 NW23G31   29.56R
ELBOW LAKE     HVY RAIN  35  33  90 NW18G32   29.59S WCI  25
WADENA         FLURRIES  34  30  86 NW16G24   29.52S WCI  23
GLENWOOD       PTSUNNY   37  34  87 W25       29.56S
APPLETON       PTSUNNY   45  30  57 NW26G32   29.63S
BENSON         LGT RAIN  39  34  81 N22G29    29.61S
ORTONVILLE     PTSUNNY   43  27  52 NW24G38   29.63S
MADISON        CLOUDY    45  27  49 NW25G32   29.64S
WILLMAR        FAIR      39  36  87 W21G31    29.60R
$$
MNZ033>034-036-042>043-049>051-058-059-210000-
   Central Minnesota

CITY           SKY/WX    TMP DP  RH WIND       PRES   REMARKS
ST CLOUD       LGT RAIN  39  28  64 NW21G36   29.51R
SAUK CENTRE    MOCLDY    37  31  77 NW20G25   29.54R
PAYNESVILLE    CLOUDY    36  31  82 W18G29    29.56R
AITKIN         MIX PCPN  37  27  65 W9G21     29.44S
PINE RIVER     CLOUDY    36  28  75 W8G20     29.51S
BRAINERD       FLURRIES  36  27  69 NW14G26   29.48S
STAPLES        CLOUDY    36  28  75 NW24G31   29.50S
LONG PRAIRIE   CLOUDY    36  30  80 W15G30    29.53S
LITTLE FALLS   FLURRIES  36  28  75 W23G30    29.51R
LITCHFIELD     PTSUNNY   41  36  81 W20G28    29.56S
BUFFALO        PTSUNNY   41  28  60 W18G35    29.54R
MAPLE LAKE     CLOUDY    41  31  67 W16G33    29.53S
$$
MNZ037-044-045-052-053-210000-
   East Central Minnesota

CITY           SKY/WX    TMP DP  RH WIND       PRES   REMARKS
PRINCETON      MOSUNNY   41  30  65 W17G25    29.49S
MORA           PTSUNNY   36  27  69 W16       29.48R
CAMBRIDGE      PTSUNNY   43  28  56 W14G29    29.46S
RUSH CITY      CLOUDY    40  27  60 W13G21    29.47S
MOOSE LAKE     CLOUDY    36  27  69 NW12G23   29.41R
HINCKLEY       CLOUDY    37  28  70 W10G17    29.45S
CLOQUET        FLURRIES  36  27  69 W17G24    29.40R
MCGREGOR       CLOUDY    34  28  80 W12G21    29.45R WCI  25
$$
MNZ071>073-080-081-089-090-097-098-210000-
   Southwest Minnesota

CITY           SKY/WX    TMP DP  RH WIND       PRES   REMARKS
MONTEVIDEO     CLOUDY    43  32  65 N17G28    29.63S
GRANITE FALLS  DRIZZLE   40  32  71 NW16G28   29.65R
CANBY          CLOUDY    44  27  49 NW23G35   29.66S
MARSHALL       CLOUDY    43  23  45 NW24G32   29.65R
REDWOOD FALLS  CLOUDY    42  29  59 NW24G33   29.61S
OLIVIA         MOSUNNY   37  32  81 W21G30    29.60R
PIPESTONE      MOSUNNY   46  25  42 N28G45    29.65R
WORTHINGTON    PTSUNNY   46  27  46 NW23G33   29.64S
JACKSON        CLOUDY    45  28  53 NW21G30   29.64S
TRACY          CLOUDY    44  26  51 NW25G38   29.65S
SLAYTON        PTSUNNY   44  26  50 NW25G36   29.65R
$$
MNZ065>067-074>077-082>085-091>093-210000-
   South Central Minnesota

CITY           SKY/WX    TMP DP  RH WIND       PRES   REMARKS
MANKATO        CLOUDY    39  28  65 W17G24    29.60R
NEW ULM        PTSUNNY   41  30  65 W26       29.60S
ST JAMES       CLOUDY    43  28  56 W18G30    29.63S
FAIRMONT       CLOUDY    43  28  56 NW20G25   29.63S
GLENCOE        CLOUDY    41  34  78 W22G35    29.57R
FARIBAULT      CLOUDY    41  28  60 W26       29.57R
OWATONNA       CLOUDY    41  28  60 W18G28    29.57S
WASECA         CLOUDY    39  28  65 W21G32    29.60R
ALBERT LEA     CLOUDY    41  32  70 W17G28    29.60R
$$
MNZ078>079-086>088-094>096-210000-
   Southeast Minnesota

CITY           SKY/WX    TMP DP  RH WIND       PRES   REMARKS
ROCHESTER      CLOUDY    40  29  64 W18G31    29.55R
RED WING       CLOUDY    43  25  49 W15G26    29.52R
STANTON        CLOUDY    42  28  56 NW23G29   29.54S
DODGE CENTER   CLOUDY    39  28  65 NW21G29   29.55R
WINONA         CLOUDY    43  28  56 W14G22    29.53R
AUSTIN         RAIN      39  32  75 W16G25    29.58R
PRESTON        CLOUDY    39  29  66 W25       29.56R
$$
ABBREVIATIONS USED IN REMARKS
   TC - TEMPERATURES IN CELSIUS
  WCI - WIND CHILL INDEX
   HX - HEAT INDEX
  VSB - VISIBILITY
$$



USA.gov is the U.S. government's official web portal to all federal, state and local government web resources and services.